[[{"header":{"parameterUnit":"m.s-1","parameterCategory":1,"la1":30.2991,"la2":30.254,"lo1":-89.0895,"lo2":-89.0444,"dy":0.0017,"dx":0.0017,"nx":28,"ny":28,"refTime":"2025-05-21T09:00:00:Z","depth":0,"parameterNumber":2,"parameterNumberName":"U-component_of_WINDS"},"data":[0,0,0,0,0,0,0,0,0,0,0,0,0,0,0,0,0,0,0,0,0,0,0,0,0,0,0,0,0,0,0,0,0,0,0,0,0,0,0,0,0,0,0,0,0,0,0,0,0,0,0,0,0,0,0,0,0,0,-1.7448,-1.7449,0,-1.7488,-1.7488,-1.7488,-1.7517,-1.7517,-1.7517,-1.7517,-1.7557,-1.7558,-1.7559,0,0,0,0,0,0,0,0,0,0,0,0,0,-1.7398,-1.7399,-1.7448,-1.7449,-1.7449,-1.7487,-1.7488,-1.7489,-1.7516,-1.7517,-1.7517,-1.7517,-1.7557,-1.7558,-1.7559,0,0,0,0,0,0,0,0,0,0,0,0,0,-1.7427,-1.7399,-1.7448,-1.7468,-1.747,-1.7487,-1.7488,-1.7489,-1.7516,-1.7517,-1.7517,-1.7517,-1.7556,-1.7557,-1.7559,-1.756,0,0,-1.7563,-1.7563,0,0,0,0,0,0,0,0,-1.7425,-1.7428,-1.7464,-1.7466,-1.7469,-1.7497,-1.7485,-1.7512,-1.7516,-1.7499,-1.7517,-1.7518,-1.7537,-1.754,-1.7546,-1.7562,-1.7563,-1.7563,-1.7563,-1.7564,-1.7564,0,0,0,0,0,0,0,-1.7423,-1.7427,-1.7464,-1.7465,-1.7467,-1.7475,-1.7479,-1.749,-1.7515,-1.75,-1.7502,-1.7507,-1.7538,-1.7545,-1.7547,-1.7564,-1.7563,-1.7564,-1.7565,-1.7565,-1.7584,-1.7584,0,0,0,0,0,0,-1.7418,-1.7425,-1.7462,-1.7465,-1.7447,-1.7475,-1.748,-1.7488,-1.7515,-1.752,-1.7506,-1.7508,-1.7543,-1.7546,-1.7549,-1.7553,-1.7564,-1.7565,-1.7566,-1.7584,-1.7584,-1.7584,0,0,0,0,0,0,-1.7417,-1.7421,-1.7461,-1.7446,-1.7451,-1.7476,-1.7484,-1.7488,-1.7495,-1.752,-1.7525,-1.7509,-1.7543,-1.7547,-1.7557,-1.7555,-1.7566,-1.7567,-1.7585,-1.7584,-1.7584,-1.756,0,0,0,0,0,0,-1.7415,-1.742,-1.742,-1.7445,-1.7452,-1.7468,-1.7484,-1.7489,-1.7498,-1.75,-1.7523,-1.7528,-1.7544,-1.7555,-1.7559,-1.7556,-1.7568,-1.7585,-1.7584,-1.7584,-1.7561,-1.7559,-1.7557,0,0,0,0,0,-1.7413,-1.7412,-1.742,-1.7425,-1.7453,-1.7468,-1.7472,-1.749,-1.7497,-1.7498,-1.7514,-1.7527,-1.7555,-1.7556,-1.756,-1.7558,-1.7585,-1.7584,-1.7584,-1.7562,-1.7559,-1.7557,0,0,0,0,0,0,-1.7385,-1.7415,-1.7425,-1.7432,-1.7447,-1.7472,-1.7474,-1.7486,-1.75,-1.7501,-1.7524,-1.7529,-1.7537,-1.7549,-1.755,-1.7562,-1.7572,-1.7572,-1.7553,-1.7551,-1.7549,-1.7546,-1.7569,0,0,0,0,0,-1.738,-1.7389,-1.7415,-1.7418,-1.7426,-1.7449,-1.7456,-1.7469,-1.7486,-1.7492,-1.7509,-1.7525,-1.7538,-1.7545,-1.7558,-1.7563,-1.7569,-1.7564,-1.7562,-1.756,-1.756,-1.7565,-1.7563,-1.7582,-1.7582,-1.7582,0,0,-1.7368,-1.7386,-1.7391,-1.7413,-1.7427,-1.7437,-1.7454,-1.7463,-1.7471,-1.7494,-1.7504,-1.7518,-1.7537,-1.7545,-1.755,-1.7555,-1.7557,-1.756,-1.7558,-1.7559,-1.7564,-1.7563,-1.7561,-1.7581,-1.7581,-1.7581,0,0,-1.7353,-1.7367,-1.7372,-1.7385,-1.7406,-1.7422,-1.7423,-1.7447,-1.7457,-1.7468,-1.7486,-1.7496,-1.7517,-1.753,-1.754,-1.7532,-1.7545,-1.7536,-1.7524,-1.7529,-1.7527,-1.7526,-1.7524,-1.7523,-1.7535,-1.7535,-1.7535,0,-1.7336,-1.7351,-1.7372,-1.7381,-1.7391,-1.7414,-1.7419,-1.7431,-1.7455,-1.7462,-1.7468,-1.7496,-1.751,-1.7522,-1.7521,-1.7527,-1.753,-1.7532,-1.7526,-1.7525,-1.7524,-1.7522,-1.7521,-1.7534,-1.7534,-1.7534,-1.7534,0,-1.733,-1.7341,-1.7342,-1.7365,-1.7375,-1.7382,-1.7405,-1.7413,-1.7426,-1.7441,-1.7454,-1.7472,-1.749,-1.7494,-1.7507,-1.7509,-1.7512,-1.7522,-1.7532,-1.7521,-1.752,-1.7519,-1.7532,-1.7533,-1.7533,-1.7533,0,0,-1.7295,-1.7332,-1.7332,-1.7343,-1.7369,-1.7378,-1.7387,-1.7405,-1.7411,-1.7428,-1.7436,-1.7454,-1.7464,-1.7475,-1.749,-1.7494,-1.7488,-1.7504,-1.7505,-1.75,-1.7492,-1.7484,-1.7483,-1.7497,-1.7497,-1.7497,-1.7491,0,-1.7284,-1.73,-1.7321,-1.7331,-1.7341,-1.7364,-1.7372,-1.7389,-1.7404,-1.7416,-1.7433,-1.7445,-1.7457,-1.7464,-1.747,-1.7487,-1.7486,-1.7488,-1.7505,-1.7505,-1.7499,-1.7482,-1.7473,-1.7467,-1.7491,-1.749,-1.749,0,-1.7271,-1.7287,-1.7298,-1.7325,-1.733,-1.7337,-1.7356,-1.7366,-1.7387,-1.7398,-1.7411,-1.7427,-1.7439,-1.7449,-1.7465,-1.7466,-1.7475,-1.7485,-1.7485,-1.7486,-1.7496,-1.7483,-1.7465,-1.7464,-1.749,-1.749,-1.749,0,-1.7245,-1.727,-1.728,-1.7289,-1.732,-1.7324,-1.7337,-1.7358,-1.7368,-1.7385,-1.7392,-1.741,-1.742,-1.7434,-1.7455,-1.746,-1.7469,-1.7481,-1.7479,-1.7478,-1.7479,-1.7478,-1.7461,-1.7485,-1.7485,-1.7485,-1.7485,0,-1.7229,-1.7235,-1.7269,-1.7275,-1.7283,-1.7307,-1.7314,-1.7329,-1.7348,-1.7358,-1.738,-1.7389,-1.7416,-1.7429,-1.7446,-1.7458,-1.7462,-1.7471,-1.7476,-1.7469,-1.7468,-1.7474,-1.7475,-1.7485,-1.7485,-1.7485,-1.7485,0,-1.7201,-1.7223,-1.7236,-1.7265,-1.7272,-1.7277,-1.7302,-1.731,-1.7327,-1.734,-1.7344,-1.7371,-1.7387,-1.741,-1.7433,-1.7445,-1.7455,-1.7462,-1.7447,-1.745,-1.7447,-1.7447,-1.7433,-1.7433,-1.7457,-1.7456,-1.7456,0,-1.7188,-1.7194,-1.7224,-1.7232,-1.7245,-1.7258,-1.7269,-1.7294,-1.7305,-1.733,-1.7334,-1.7353,-1.7368,-1.7394,-1.7416,-1.7434,-1.7442,-1.7436,-1.7444,-1.7438,-1.7442,-1.7441,-1.7442,-1.7433,-1.7433,-1.7432,-1.7432,0,-1.7164,-1.7176,-1.7191,-1.721,-1.7222,-1.7239,-1.7256,-1.7262,-1.7291,-1.7302,-1.7319,-1.7332,-1.7357,-1.7375,-1.7397,-1.7411,-1.7426,-1.743,-1.743,-1.7423,-1.7415,-1.742,-1.7441,-1.7429,-1.743,-1.743,-1.743,-1.743,-1.7144,-1.715,-1.7173,-1.7189,-1.7205,-1.7221,-1.723,-1.7249,-1.7264,-1.7286,-1.7301,-1.7317,-1.734,-1.7371,-1.7385,-1.74,-1.7406,-1.7406,-1.7407,-1.7406,-1.7404,-1.7413,-1.7404,-1.7404,-1.7404,-1.7404,-1.7404,0,-1.7121,-1.7137,-1.7152,-1.7176,-1.7189,-1.7204,-1.7225,-1.7235,-1.7249,-1.7269,-1.7285,-1.7306,-1.7325,-1.7349,-1.737,-1.7376,-1.7384,-1.7381,-1.738,-1.7383,-1.7397,-1.7395,-1.7374,-1.7374,-1.7374,-1.7374,-1.7374,-1.7374,-1.711,-1.7122,-1.7137,-1.7157,-1.7174,-1.7191,-1.7201,-1.7217,-1.7233,-1.7256,-1.7271,-1.7288,-1.731,-1.7333,-1.7351,-1.7358,-1.7364,-1.7359,-1.7368,-1.738,-1.7382,-1.7385,-1.7383,-1.736,-1.736,-1.7353,-1.7353,-1.7353]},{"header":{"parameterUnit":"m.s-1","parameterCategory":1,"la1":30.2991,"la2":30.254,"lo1":-89.0895,"lo2":-89.0444,"dy":0.0017,"dx":0.0017,"nx":28,"ny":28,"refTime":"2025-05-21T09:00:00:Z","depth":0,"parameterNumber":3,"parameterNumberName":"V-component_of_WINDS"},"data":[0,0,0,0,0,0,0,0,0,0,0,0,0,0,0,0,0,0,0,0,0,0,0,0,0,0,0,0,0,0,0,0,0,0,0,0,0,0,0,0,0,0,0,0,0,0,0,0,0,0,0,0,0,0,0,0,0,0,2.9477,2.9478,0,2.964,2.9642,2.9644,2.9764,2.9765,2.9766,2.9767,2.9934,2.9937,2.9941,0,0,0,0,0,0,0,0,0,0,0,0,0,2.9269,2.9272,2.9477,2.9479,2.9481,2.964,2.9642,2.9645,2.9764,2.9765,2.9766,2.9767,2.9933,2.9937,2.9941,0,0,0,0,0,0,0,0,0,0,0,0,0,2.9389,2.9274,2.9476,2.9559,2.9568,2.964,2.9643,2.9645,2.9763,2.9765,2.9766,2.9768,2.9931,2.9937,2.9942,2.9944,0,0,2.9958,2.996,0,0,0,0,0,0,0,0,2.9382,2.9396,2.9545,2.9554,2.9564,2.9683,2.9631,2.9745,2.9763,2.9689,2.9767,2.9769,2.9849,2.9861,2.9889,2.9951,2.9959,2.9958,2.9961,2.9964,2.9965,0,0,0,0,0,0,0,2.9373,2.939,2.9541,2.9547,2.9559,2.9589,2.9608,2.9653,2.9759,2.9696,2.9705,2.9723,2.9855,2.9883,2.9894,2.9961,2.9958,2.9963,2.9966,2.9968,3.0037,3.0036,0,0,0,0,0,0,2.9352,2.9382,2.9536,2.9546,2.9475,2.9592,2.9613,2.9643,2.9759,2.9778,2.9721,2.9728,2.9874,2.9887,2.99,2.9912,2.9964,2.9969,2.9972,3.0039,3.0037,3.0036,0,0,0,0,0,0,2.9347,2.9365,2.953,2.9467,2.949,2.9594,2.9627,2.9646,2.9675,2.9778,2.9797,2.9731,2.9875,2.9893,2.9933,2.9919,2.9971,2.9976,3.004,3.0038,3.0036,2.9934,0,0,0,0,0,0,2.9341,2.9362,2.9363,2.9466,2.9493,2.9558,2.9626,2.9648,2.9683,2.9693,2.9792,2.981,2.9878,2.9924,2.9938,2.9927,2.998,3.0042,3.0039,3.0037,2.9939,2.9928,2.9919,0,0,0,0,0,2.9333,2.9327,2.9362,2.938,2.9496,2.9557,2.9573,2.9652,2.9682,2.9684,2.9751,2.9807,2.9918,2.9927,2.9944,2.9934,3.0043,3.004,3.0037,2.9943,2.993,2.992,0,0,0,0,0,0,2.9218,2.9341,2.9382,2.9409,2.9472,2.9577,2.9583,2.9635,2.9691,2.9698,2.9793,2.9815,2.9845,2.9894,2.9902,2.9944,2.9988,2.9988,2.9911,2.99,2.989,2.9878,2.9984,0,0,0,0,0,2.9196,2.9235,2.9341,2.9355,2.9384,2.9478,2.9507,2.9563,2.9632,2.9659,2.9728,2.9793,2.9844,2.9875,2.9926,2.9947,2.9971,2.9949,2.9939,2.9931,2.993,2.9947,2.9939,3.0026,3.0026,3.0026,0,0,2.9151,2.9223,2.9241,2.9334,2.9389,2.9428,2.9499,2.9537,2.9567,2.9665,2.9707,2.9761,2.984,2.9871,2.9888,2.9913,2.9912,2.9927,2.992,2.9923,2.9943,2.9935,2.9928,3.0024,3.0024,3.0025,0,0,2.9088,2.9146,2.9165,2.922,2.9303,2.9366,2.937,2.9469,2.9508,2.9553,2.9628,2.9666,2.9749,2.9804,2.9842,2.9804,2.9858,2.9818,2.9768,2.9784,2.9777,2.9771,2.9759,2.9753,2.9817,2.9817,2.9817,0,2.9021,2.9083,2.9168,2.9202,2.9242,2.9333,2.9354,2.9403,2.9498,2.9523,2.955,2.9659,2.9719,2.9765,2.9756,2.9784,2.9793,2.9807,2.9771,2.9766,2.9762,2.9752,2.9747,2.9811,2.9812,2.9813,2.9813,0,2.8997,2.9039,2.9044,2.9135,2.9176,2.9202,2.9293,2.9324,2.9377,2.9437,2.9483,2.9558,2.9628,2.9644,2.9695,2.9698,2.9711,2.9753,2.9799,2.9747,2.9739,2.9736,2.9804,2.9806,2.9807,2.9809,0,0,2.8864,2.9005,2.9005,2.9049,2.9149,2.9184,2.9216,2.9286,2.9311,2.9374,2.9405,2.9476,2.9516,2.956,2.9619,2.9633,2.96,2.9674,2.9677,2.9658,2.9611,2.9578,2.9572,2.9637,2.9637,2.9636,2.9604,0,2.8817,2.888,2.896,2.8996,2.9037,2.9126,2.9156,2.9221,2.9279,2.9323,2.9388,2.9437,2.9486,2.9513,2.9531,2.96,2.9592,2.9604,2.9668,2.9669,2.9645,2.9568,2.9533,2.9499,2.9602,2.9601,2.9601,0,2.8771,2.8831,2.8871,2.8971,2.8992,2.9016,2.9087,2.9128,2.9205,2.9247,2.9297,2.9361,2.9402,2.9444,2.9502,2.9508,2.954,2.9578,2.9579,2.9587,2.9631,2.9575,2.949,2.9485,2.9596,2.9597,2.9597,0,2.8671,2.8762,2.8799,2.8834,2.8951,2.8966,2.9016,2.9095,2.9132,2.9195,2.9221,2.9287,2.9323,2.9374,2.9455,2.9478,2.9506,2.9553,2.9543,2.954,2.9544,2.9542,2.9463,2.9563,2.9563,2.9563,2.9563,0,2.861,2.8632,2.8757,2.8779,2.8807,2.8899,2.8924,2.8982,2.9052,2.9089,2.917,2.9203,2.9308,2.9354,2.9418,2.9458,2.9474,2.9509,2.9526,2.9502,2.9498,2.9524,2.9528,2.9562,2.9562,2.9563,2.9563,0,2.8503,2.8587,2.8633,2.8741,2.8769,2.8785,2.8878,2.8904,2.8969,2.9014,2.903,2.9131,2.919,2.9276,2.936,2.9404,2.9434,2.9461,2.9407,2.9418,2.9402,2.9403,2.9337,2.9334,2.9434,2.9433,2.9433,0,2.8458,2.8477,2.8588,2.8618,2.8665,2.8713,2.8753,2.8846,2.8883,2.8975,2.899,2.9055,2.9112,2.9202,2.9283,2.9349,2.9379,2.9351,2.9389,2.9365,2.9379,2.9377,2.9381,2.9342,2.934,2.9339,2.9338,0,2.8371,2.8412,2.8466,2.8535,2.858,2.8638,2.8701,2.8722,2.8828,2.8867,2.8928,2.8973,2.906,2.9124,2.9202,2.9254,2.9314,2.9326,2.9327,2.9302,2.9271,2.9289,2.9383,2.9326,2.9327,2.9328,2.9329,2.9329,2.8294,2.8316,2.8398,2.8456,2.8513,2.8571,2.8602,2.8671,2.8724,2.8802,2.8854,2.8913,2.8994,2.9104,2.9154,2.9202,2.9227,2.9228,2.9229,2.9228,2.922,2.9263,2.9217,2.9217,2.9218,2.9218,2.9218,0,2.8212,2.827,2.8322,2.8408,2.8454,2.8508,2.8581,2.8616,2.8667,2.8737,2.8792,2.8864,2.8927,2.9015,2.9085,2.9107,2.9137,2.9123,2.9122,2.9134,2.9193,2.9185,2.9098,2.9098,2.9098,2.9098,2.9098,2.9098,2.8174,2.8215,2.8267,2.8338,2.8397,2.8455,2.8493,2.8547,2.8604,2.868,2.8734,2.8791,2.8869,2.8946,2.9008,2.9032,2.9055,2.9032,2.9065,2.9118,2.9129,2.914,2.9133,2.9036,2.9036,2.9002,2.9002,2.9002]}]]